DLH3MT EDDV-EDDF

Flight info

Callsign DLH3MT
Flight time 0h 37m
Altitude 17000
Route TOLTA1F TOLTA T154 ROBAR T152 KERAX KERAX5D
Aircraft A320/M-SDE3FGHIRWY/LB1

Departure

Time 2026-04-15 07:44
Airport Hannover Airport (EDDV)

Arrival

Time 2026-04-15 08:21
Airport Frankfurt Main Airport (EDDF)
Time Latitude Longitude Altitude Speed Heading
2026-04-15 07:28 52.45832 9.69310 179 ft 0 kts 51°
2026-04-15 07:37 52.45830 9.69306 178 ft 3 kts 52°
2026-04-15 07:38 52.45817 9.69269 178 ft 4 kts 75°
2026-04-15 07:38 52.45815 9.69227 178 ft 4 kts 106°
2026-04-15 07:38 52.45827 9.69189 178 ft 4 kts 131°
2026-04-15 07:38 52.45846 9.69160 177 ft 3 kts 145°
2026-04-15 07:39 52.45849 9.69157 177 ft 0 kts 145°
2026-04-15 07:40 52.45847 9.69159 177 ft 3 kts 145°
2026-04-15 07:41 52.45796 9.69201 178 ft 11 kts 169°
2026-04-15 07:41 52.45722 9.69152 178 ft 12 kts 188°
2026-04-15 07:41 52.45637 9.69168 180 ft 11 kts 137°
2026-04-15 07:41 52.45619 9.69282 181 ft 10 kts 94°
2026-04-15 07:42 52.45616 9.69398 180 ft 12 kts 92°
2026-04-15 07:42 52.45611 9.69561 180 ft 16 kts 92°
2026-04-15 07:42 52.45605 9.69751 182 ft 18 kts 92°
2026-04-15 07:42 52.45598 9.69982 179 ft 23 kts 93°
2026-04-15 07:43 52.45590 9.70253 181 ft 24 kts 90°
2026-04-15 07:43 52.45584 9.70521 178 ft 15 kts 93°
2026-04-15 07:43 52.45553 9.70671 180 ft 14 kts 150°
2026-04-15 07:43 52.45449 9.70671 179 ft 16 kts 186°
2026-04-15 07:44 52.45423 9.70512 179 ft 29 kts 271°
2026-04-15 07:44 52.45443 9.69637 180 ft 121 kts 272°
2026-04-15 07:44 52.45490 9.67914 447 ft 167 kts 269°
2026-04-15 07:44 52.45532 9.65978 1358 ft 173 kts 269°
2026-04-15 07:45 52.45571 9.64004 2028 ft 180 kts 269°
2026-04-15 07:45 52.45604 9.61849 2457 ft 197 kts 269°
2026-04-15 07:45 52.45645 9.59502 2927 ft 216 kts 270°
2026-04-15 07:45 52.45712 9.57015 3801 ft 219 kts 270°
2026-04-15 07:46 52.45542 9.54547 4675 ft 219 kts 245°
2026-04-15 07:46 52.44649 9.52561 5500 ft 219 kts 215°
2026-04-15 07:46 52.43334 9.51248 6337 ft 222 kts 209°
2026-04-15 07:46 52.41983 9.49981 7142 ft 226 kts 209°
2026-04-15 07:47 52.40619 9.48706 7871 ft 231 kts 210°
2026-04-15 07:47 52.39204 9.47385 8621 ft 236 kts 210°
2026-04-15 07:47 52.37758 9.46033 9411 ft 240 kts 211°
2026-04-15 07:47 52.36297 9.44660 10225 ft 244 kts 212°
2026-04-15 07:48 52.34819 9.43268 10988 ft 246 kts 212°
2026-04-15 07:48 52.33236 9.42176 11777 ft 250 kts 195°
2026-04-15 07:48 52.31455 9.41873 12271 ft 270 kts 178°
2026-04-15 07:48 52.29498 9.42170 12569 ft 294 kts 176°
2026-04-15 07:49 52.27382 9.42503 12842 ft 317 kts 176°
2026-04-15 07:49 52.25105 9.42856 13086 ft 340 kts 176°
2026-04-15 07:49 52.22664 9.43228 13281 ft 362 kts 176°
2026-04-15 07:49 52.20112 9.43616 13808 ft 373 kts 177°
2026-04-15 07:50 52.17511 9.44008 14454 ft 378 kts 177°
2026-04-15 07:50 52.14911 9.44402 15067 ft 382 kts 177°
2026-04-15 07:50 52.12248 9.44804 15708 ft 385 kts 177°
2026-04-15 07:50 52.09563 9.45208 16335 ft 389 kts 177°
2026-04-15 07:51 52.06850 9.45610 16951 ft 394 kts 177°
2026-04-15 07:51 52.04101 9.46016 17545 ft 398 kts 177°
2026-04-15 07:51 52.01330 9.46423 18129 ft 402 kts 177°
2026-04-15 07:51 51.98527 9.46827 18689 ft 406 kts 178°
2026-04-15 07:52 51.95694 9.47145 19189 ft 410 kts 179°
2026-04-15 07:52 51.93799 9.47306 19537 ft 412 kts 179°
2026-04-15 07:52 51.90926 9.47506 20039 ft 415 kts 180°
2026-04-15 07:52 51.88028 9.47685 20533 ft 418 kts 179°
2026-04-15 07:53 51.85110 9.47871 21021 ft 421 kts 179°
2026-04-15 07:53 51.82161 9.48076 21513 ft 425 kts 179°
2026-04-15 07:53 51.79196 9.48296 21996 ft 428 kts 179°
2026-04-15 07:53 51.76201 9.48528 22480 ft 431 kts 179°
2026-04-15 07:54 51.73193 9.48763 22950 ft 434 kts 179°
2026-04-15 07:54 51.70167 9.48983 23404 ft 437 kts 179°
2026-04-15 07:54 51.67111 9.49189 23848 ft 440 kts 179°
2026-04-15 07:54 51.64035 9.49381 24189 ft 444 kts 179°
2026-04-15 07:55 51.60939 9.49554 24533 ft 447 kts 179°
2026-04-15 07:55 51.57817 9.49731 24870 ft 450 kts 179°
2026-04-15 07:55 51.51538 9.50102 25527 ft 458 kts 179°
2026-04-15 07:56 51.48345 9.50297 25861 ft 461 kts 179°
2026-04-15 07:56 51.45121 9.50497 26174 ft 464 kts 179°
2026-04-15 07:56 51.41882 9.50639 26250 ft 469 kts 183°
2026-04-15 07:56 51.38664 9.49815 26012 ft 469 kts 199°
2026-04-15 07:57 51.35689 9.47708 25767 ft 467 kts 210°
2026-04-15 07:57 51.32826 9.45256 25527 ft 468 kts 210°
2026-04-15 07:57 51.29956 9.42788 25276 ft 468 kts 210°
2026-04-15 07:57 51.27085 9.40320 25040 ft 467 kts 210°
2026-04-15 07:58 51.24213 9.37855 24802 ft 467 kts 210°
2026-04-15 07:58 51.21340 9.35403 24575 ft 467 kts 210°
2026-04-15 07:58 51.18512 9.32999 24335 ft 466 kts 209°
2026-04-15 07:58 51.15618 9.30552 24101 ft 464 kts 209°
2026-04-15 07:59 51.12800 9.28171 23870 ft 462 kts 209°
2026-04-15 07:59 51.09963 9.25774 23600 ft 460 kts 209°
2026-04-15 07:59 51.07142 9.23390 23329 ft 458 kts 209°
2026-04-15 07:59 51.04335 9.21013 23057 ft 456 kts 209°
2026-04-15 08:00 51.01539 9.18651 22784 ft 454 kts 209°
2026-04-15 08:00 50.98755 9.16304 22508 ft 452 kts 209°
2026-04-15 08:00 50.95981 9.13968 22246 ft 451 kts 209°
2026-04-15 08:00 50.93214 9.11643 21992 ft 449 kts 209°
2026-04-15 08:01 50.90453 9.09330 21727 ft 447 kts 209°
2026-04-15 08:01 50.87702 9.07033 21471 ft 446 kts 209°
2026-04-15 08:01 50.84959 9.04744 21217 ft 444 kts 209°
2026-04-15 08:01 50.82230 9.02467 20961 ft 442 kts 209°
2026-04-15 08:02 50.79516 9.00200 20713 ft 441 kts 209°
2026-04-15 08:02 50.76812 8.97943 20465 ft 439 kts 209°
2026-04-15 08:02 50.74113 8.95694 20221 ft 437 kts 209°
2026-04-15 08:02 50.71424 8.93461 19978 ft 436 kts 209°
2026-04-15 08:03 50.68742 8.91240 19734 ft 434 kts 209°
2026-04-15 08:03 50.66074 8.89030 19496 ft 433 kts 209°
2026-04-15 08:03 50.63443 8.86850 19258 ft 431 kts 209°
2026-04-15 08:03 50.60788 8.84652 19021 ft 430 kts 209°
2026-04-15 08:04 50.58148 8.82469 18796 ft 428 kts 209°
2026-04-15 08:04 50.55515 8.80294 18556 ft 427 kts 209°
2026-04-15 08:04 50.52886 8.78128 18278 ft 425 kts 209°
2026-04-15 08:04 50.50267 8.75975 18014 ft 423 kts 209°
2026-04-15 08:05 50.47662 8.73839 17738 ft 421 kts 208°
2026-04-15 08:05 50.45069 8.71720 17479 ft 419 kts 208°
2026-04-15 08:05 50.42501 8.69620 16947 ft 412 kts 209°
2026-04-15 08:05 50.39973 8.67550 16336 ft 407 kts 209°
2026-04-15 08:06 50.37476 8.65506 15758 ft 402 kts 209°
2026-04-15 08:06 50.35007 8.63490 15196 ft 397 kts 208°
2026-04-15 08:06 50.32564 8.61500 14623 ft 393 kts 208°
2026-04-15 08:06 50.30151 8.59539 14055 ft 389 kts 208°
2026-04-15 08:07 50.27761 8.57597 13426 ft 385 kts 208°
2026-04-15 08:07 50.25396 8.55674 12773 ft 382 kts 208°
2026-04-15 08:07 50.23048 8.53766 12120 ft 379 kts 208°
2026-04-15 08:07 50.20703 8.51865 11256 ft 381 kts 208°
2026-04-15 08:08 50.18409 8.50009 11266 ft 377 kts 208°
2026-04-15 08:08 50.16119 8.48131 10988 ft 361 kts 211°
2026-04-15 08:08 50.14131 8.46026 10801 ft 330 kts 219°
2026-04-15 08:08 50.12490 8.43684 10684 ft 314 kts 227°
2026-04-15 08:09 50.11118 8.41109 10444 ft 305 kts 234°
2026-04-15 08:09 50.10017 8.38370 10076 ft 292 kts 242°
2026-04-15 08:09 50.09175 8.35526 9675 ft 286 kts 249°
2026-04-15 08:09 50.08481 8.32632 9172 ft 284 kts 249°
2026-04-15 08:10 50.07787 8.29756 8646 ft 283 kts 249°
2026-04-15 08:10 50.07086 8.26871 8136 ft 286 kts 249°
2026-04-15 08:10 50.06384 8.23998 7802 ft 282 kts 249°
2026-04-15 08:10 50.05694 8.21167 7501 ft 278 kts 249°
2026-04-15 08:11 50.05012 8.18376 7204 ft 275 kts 248°
2026-04-15 08:11 50.04333 8.15602 6906 ft 273 kts 248°
2026-04-15 08:11 50.03661 8.12851 6637 ft 272 kts 248°
2026-04-15 08:11 50.02987 8.10099 6382 ft 272 kts 248°
2026-04-15 08:12 50.02315 8.07342 6119 ft 273 kts 249°
2026-04-15 08:12 50.01569 8.04645 5844 ft 271 kts 236°
2026-04-15 08:12 50.00235 8.02642 5593 ft 267 kts 207°
2026-04-15 08:12 49.98487 8.01887 5337 ft 258 kts 178°
2026-04-15 08:13 49.96769 8.02387 5094 ft 248 kts 155°
2026-04-15 08:13 49.95399 8.03794 5002 ft 233 kts 133°
2026-04-15 08:13 49.94498 8.05772 4998 ft 218 kts 113°
2026-04-15 08:13 49.94106 8.07960 4998 ft 204 kts 95°
2026-04-15 08:14 49.94172 8.10069 5015 ft 187 kts 78°
2026-04-15 08:14 49.94559 8.11908 5008 ft 173 kts 70°
2026-04-15 08:14 49.94964 8.13565 5000 ft 157 kts 70°
2026-04-15 08:14 49.95347 8.15139 5010 ft 160 kts 70°
2026-04-15 08:15 49.95743 8.16767 4988 ft 162 kts 70°
2026-04-15 08:15 49.96140 8.18396 4836 ft 159 kts 70°
2026-04-15 08:15 49.96529 8.19994 4633 ft 156 kts 70°
2026-04-15 08:15 49.96904 8.21536 4422 ft 149 kts 70°
2026-04-15 08:16 49.97265 8.23024 4210 ft 145 kts 70°
2026-04-15 08:16 49.97618 8.24479 4000 ft 143 kts 70°
2026-04-15 08:16 49.97968 8.25920 3813 ft 143 kts 72°
2026-04-15 08:16 49.98308 8.27322 3605 ft 136 kts 70°
2026-04-15 08:17 49.98639 8.28689 3404 ft 134 kts 70°
2026-04-15 08:17 49.98969 8.30052 3202 ft 134 kts 70°
2026-04-15 08:17 49.99297 8.31410 3014 ft 134 kts 70°
2026-04-15 08:17 49.99625 8.32765 2819 ft 134 kts 70°
2026-04-15 08:18 49.99953 8.34124 2647 ft 138 kts 71°
2026-04-15 08:18 50.00278 8.35468 2435 ft 131 kts 71°
2026-04-15 08:18 50.00598 8.36797 2202 ft 129 kts 71°
2026-04-15 08:18 50.00916 8.38100 1969 ft 128 kts 71°
2026-04-15 08:19 50.01223 8.39404 1843 ft 130 kts 73°
2026-04-15 08:19 50.01535 8.40745 1646 ft 133 kts 71°
2026-04-15 08:19 50.01868 8.42100 1447 ft 136 kts 69°
2026-04-15 08:19 50.02209 8.43460 1268 ft 133 kts 71°
2026-04-15 08:20 50.02518 8.44809 1094 ft 133 kts 69°
2026-04-15 08:20 50.02847 8.46164 890 ft 133 kts 68°
2026-04-15 08:20 50.03167 8.47503 698 ft 131 kts 67°
2026-04-15 08:20 50.03491 8.48818 511 ft 129 kts 66°
2026-04-15 08:21 50.03802 8.50125 359 ft 128 kts 67°
2026-04-15 08:21 50.04085 8.51299 354 ft 100 kts 68°
2026-04-15 08:21 50.04270 8.52064 353 ft 51 kts 70°
2026-04-15 08:21 50.04377 8.52505 352 ft 47 kts 71°
2026-04-15 08:22 50.04391 8.52887 349 ft 38 kts 98°
2026-04-15 08:22 50.04361 8.53284 349 ft 26 kts 75°
2026-04-15 08:22 50.04383 8.53438 346 ft 4 kts 78°
2026-04-15 08:22 50.04391 8.53504 347 ft 13 kts 79°
2026-04-15 08:23 50.04410 8.53719 350 ft 26 kts 84°
2026-04-15 08:23 50.04431 8.54025 352 ft 30 kts 83°
2026-04-15 08:23 50.04449 8.54307 351 ft 26 kts 86°
2026-04-15 08:23 50.04429 8.54587 354 ft 27 kts 117°
2026-04-15 08:24 50.04304 8.54764 349 ft 23 kts 150°
2026-04-15 08:24 50.04155 8.54868 352 ft 25 kts 160°
2026-04-15 08:24 50.04030 8.54947 351 ft 16 kts 135°
2026-04-15 08:24 50.04039 8.55098 351 ft 16 kts 69°
2026-04-15 08:25 50.04080 8.55267 346 ft 18 kts 69°
2026-04-15 08:25 50.04128 8.55460 350 ft 20 kts 69°
2026-04-15 08:25 50.04179 8.55676 351 ft 22 kts 70°
2026-04-15 08:25 50.04233 8.55901 353 ft 18 kts 64°
2026-04-15 08:26 50.04335 8.55934 350 ft 18 kts 341°
2026-04-15 08:26 50.04454 8.55928 346 ft 14 kts 23°
2026-04-15 08:26 50.04552 8.55989 348 ft 16 kts 45°
2026-04-15 08:26 50.04600 8.56156 346 ft 18 kts 71°
2026-04-15 08:27 50.04645 8.56351 354 ft 20 kts 69°
2026-04-15 08:27 50.04699 8.56544 353 ft 15 kts 53°
2026-04-15 08:27 50.04756 8.56659 350 ft 11 kts 52°
2026-04-15 08:27 50.04744 8.56718 355 ft 0 kts 117°
2026-04-15 08:28 50.04735 8.56736 356 ft 0 kts 117°
2026-04-15 08:28 50.04735 8.56737 356 ft 0 kts 117°